Content
SEND FEEDBACK

Daily
Averages
Monthly
Summary
France

BORDEAUX, FRANCE


Home > Europe > France
Elevation: 200 feet     Latitude: 44 50N     Longitude: 000 42W

WEATHER
 
SELECT A DAY
Number of Records: 320,661;   Date Range: 7/1/96 - 7/28/14
 
SHARE

PRINT THIS DATA

[ ← Previous Day ]
WEATHER ALMANAC - OCTOBER 22, 2013
[ Next Day → ]
[ °C ]   °F
Weather ElementAverageHighLow
Temperature64.7 °F68 °F (3:30 pm)60.8 °F (5:00 am)
Dewpoint56.6 °F60.8 °F (2:30 am)50 °F (8:30 pm)
Humidity75.8 %94 % (3:00 am)45 % (8:00 pm)
Barometer29.65 in29.77 in (12:30 am)29.59 in (4:00 pm)
Wind Speed11 mph16.1 mph (10:30 pm)
Weather ElementAverage
Visibility6.2 mi
Wind DirectionSSE (163.1 °)

Weather ElementTotal
Precipitation---
Heating Degree Days0.6 (Base 65)
Growing Degree Days14.4 (Base 50)
Averaged from 51 records on October 22, 2013
WEATHER CONDITIONS BREAKOUT
WIND DIRECTION BREAKOUT
WEATHER BY HOUR - OCTOBER 22, 2013
[ °C ]   °F
Local TimeTemperatureDewpointHumidityBarometerVisibilityWind DirectionWind SpeedGust SpeedPrecipitationEventsConditions
12:30 AM62.6 °F59.0 °F88 %29.77 in6.2 miSE (130°)12.7 mph
1:00 AM62.6 °F59.0 °F88 %29.74 in6.2 miSE (130°)12.7 mph
1:30 AM62.6 °F59.0 °F88 %29.74 in6.2 miSE (140°)12.7 mph
2:00 AM64.0 °F60.0 °F81 %29.75 inSSE (150°)11.5 mphScattered Clouds
2:00 AM64.4 °F59.0 °F83 %29.74 in6.2 miSSE (150°)11.5 mph
2:30 AM64.4 °F60.8 °F88 %29.74 in6.2 miSE (140°)10.4 mph
3:00 AM62.6 °F60.8 °F94 %29.74 in6.2 miSE (140°)11.5 mph
3:30 AM62.6 °F59.0 °F88 %29.71 in6.2 miSE (140°)11.5 mph
4:00 AM62.6 °F59.0 °F88 %29.71 in5.6 miSSE (150°)10.4 mph
4:30 AM62.6 °F59.0 °F88 %29.71 in6.2 miSSE (150°)11.5 mph
5:00 AM60.8 °F59.0 °F94 %29.68 in5.6 miSSE (150°)10.4 mph
5:30 AM60.8 °F59.0 °F94 %29.68 in6.2 miSE (140°)9.2 mph
6:00 AM60.8 °F59.0 °F94 %29.68 in6.2 miSE (140°)10.4 mph
6:30 AM60.8 °F59.0 °F94 %29.68 in6.2 miSE (140°)12.7 mph
7:00 AM60.8 °F59.0 °F94 %29.68 in6.2 miSE (140°)9.2 mph
7:30 AM60.8 °F57.2 °F88 %29.65 in6.2 miSE (140°)9.2 mph
8:00 AM61.0 °F57.0 °F84 %29.66 inSE (140°)8.1 mphPartly Cloudy
8:00 AM60.8 °F57.2 °F88 %29.65 in6.2 miSE (140°)8.1 mph
8:30 AM60.8 °F57.2 °F88 %29.65 in6.2 miSE (140°)9.2 mph
9:00 AM60.8 °F57.2 °F88 %29.65 in6.2 miESE (120°)9.2 mph
9:30 AM60.8 °F59.0 °F94 %29.65 in6.2 miSE (140°)9.2 mph
10:00 AM62.6 °F59.0 °F88 %29.65 in6.2 miSSE (150°)9.2 mph
10:30 AM64.4 °F59.0 °F83 %29.65 in6.2 miSSE (160°)10.4 mph
11:00 AM66.2 °F57.2 °F73 %29.65 in6.2 miSouth (180°)6.9 mph
11:30 AM66.2 °F59.0 °F78 %29.65 in6.2 miSSE (160°)5.8 mphMostly Cloudy
12:00 PM66.2 °F57.2 °F73 %29.65 in6.2 miSSW (200°)9.2 mphRainRain
12:30 PM64.4 °F57.2 °F77 %29.65 in6.2 miSSW (200°)15.0 mphRainRain
1:00 PM64.4 °F59.0 °F83 %29.65 in6.2 miSouth (180°)9.2 mphRainLight Rain
1:30 PM64.4 °F59.0 °F83 %29.62 in6.2 miSouth (180°)11.5 mphRainLight Rain
2:00 PM65.0 °F58.0 °F73 %29.63 inSouth (180°)10.4 mphRainLight Rain
2:00 PM64.4 °F59.0 °F83 %29.62 in6.2 miSouth (180°)10.4 mphOvercast
2:30 PM66.2 °F57.2 °F73 %29.62 in6.2 miSouth (180°)8.1 mph
3:00 PM66.2 °F57.2 °F73 %29.62 in6.2 miSouth (170°)10.4 mph
3:30 PM68.0 °F55.4 °F64 %29.62 in6.2 miSouth (180°)10.4 mph
4:00 PM68.0 °F55.4 °F64 %29.59 in6.2 miSouth (170°)10.4 mphMostly Cloudy
4:30 PM66.2 °F55.4 °F68 %29.59 in6.2 miSouth (180°)11.5 mphRainLight Rain
5:00 PM66.2 °F55.4 °F68 %29.59 in6.2 miSouth (170°)8.1 mphMostly Cloudy
5:30 PM68.0 °F55.4 °F64 %29.59 in6.2 miSouth (170°)10.4 mph
6:00 PM68.0 °F55.4 °F64 %29.59 in6.2 miSouth (180°)11.5 mph
6:30 PM68.0 °F53.6 °F60 %29.59 in6.2 miSouth (180°)11.5 mph
7:00 PM68.0 °F51.8 °F56 %29.59 in6.2 miSouth (180°)13.8 mph
7:30 PM68.0 °F51.8 °F56 %29.59 in6.2 miSouth (180°)13.8 mph
8:00 PM68.0 °F51.0 °F45 %29.61 inSouth (180°)15.0 mphMostly Cloudy
8:00 PM68.0 °F51.8 °F56 %29.59 in6.2 miSouth (180°)15.0 mph
8:30 PM68.0 °F50.0 °F52 %29.59 in6.2 miSouth (190°)13.8 mph
9:00 PM68.0 °F51.8 °F56 %29.59 in6.2 miSouth (190°)15.0 mph
9:30 PM68.0 °F51.8 °F56 %29.62 in6.2 miSouth (190°)11.5 mph
10:00 PM68.0 °F51.8 °F56 %29.62 in6.2 miSouth (180°)11.5 mph
10:30 PM68.0 °F51.8 °F56 %29.62 in6.2 miSouth (180°)16.1 mph
11:00 PM68.0 °F51.8 °F56 %29.62 in6.2 miSouth (190°)12.7 mph
11:30 PM68.0 °F51.8 °F56 %29.62 in6.2 miSouth (180°)12.7 mph
Hourly data recorded from LFBD, located miles away from Bordeaux, France







STORIES FROM OUR PARTNERS